DL7GAI-7 Weather Reports


Display with metric or nautical units.
time (UTC)temp
F
wind
direction
speed
MPH
gust
MPH
rain 1hr
in
rain 24hr
in
rain mn
in
humidity
%
barometer
mb
20201124040917 33 0 1.0 2.0 0.00 0.00 0.00 99 1029.4
20201124035633 32 0 2.0 3.0 0.00 0.00 0.00 99 1029.8
20201124034301 32 0 2.0 3.0 0.00 0.00 0.00 99 1029.8
20201124032841 32 45 2.0 3.0 0.00 0.00 0.00 100 1030.1
20201124031529 32 45 2.0 3.0 0.00 0.00 0.00 100 1030.1
20201124030142 33 90 2.0 5.0 0.00 0.00 0.00 99 1030.0
20201124024711 33 90 2.0 5.0 0.00 0.00 0.00 99 1030.0
20201124023359 33 45 2.0 5.0 0.00 0.00 0.00 98 1030.2
20201124022037 33 45 2.0 5.0 0.00 0.00 0.00 98 1030.2
20201124020549 35 0 0.0 4.0 0.00 0.00 0.00 98 1030.3
20201124015148 35 0 0.0 4.0 0.00 0.00 0.00 98 1030.3
20201124013753 35 0 0.0 4.0 0.00 0.00 0.00 98 1030.3
20201124012529 33 0 2.0 4.0 0.00 0.00 0.00 97 1030.6
20201124011207 33 0 2.0 4.0 0.00 0.00 0.00 97 1030.6
20201124005819 34 0 2.0 3.0 0.00 0.00 0.00 99 1030.8
20201124004435 34 0 2.0 3.0 0.00 0.00 0.00 99 1030.8
20201124003103 34 0 2.0 2.0 0.00 0.00 0.00 98 1030.9
20201124001810 34 0 2.0 2.0 0.00 0.00 0.00 98 1030.9
20201124000432 33 315 1.0 3.0 0.00 0.00 0.00 96 1031.2
20201123235054 33 315 1.0 3.0 0.00 0.00 0.00 96 1031.2
20201123233739 33 315 1.0 3.0 0.00 0.00 0.00 96 1031.2
20201123232324 33 315 2.0 3.0 0.00 0.00 0.00 96 1031.4
20201123231054 33 315 2.0 3.0 0.00 0.00 0.00 96 1031.4
20201123225622 35 0 0.0 4.0 0.00 0.00 0.00 97 1031.5
20201123224234 35 0 0.0 4.0 0.00 0.00 0.00 97 1031.5
20201123222847 34 0 2.0 4.0 0.00 0.00 0.00 97 1031.4
20201123221540 34 0 2.0 4.0 0.00 0.00 0.00 97 1031.4
20201123220239 34 0 2.0 4.0 0.00 0.00 0.00 97 1031.4
20201123214811 34 0 2.0 4.0 0.00 0.00 0.00 97 1031.4
20201123213500 34 0 0.0 4.0 0.00 0.00 0.00 95 1031.4
20201123212140 34 0 0.0 4.0 0.00 0.00 0.00 95 1031.4
20201123210755 34 0 0.0 4.0 0.00 0.00 0.00 95 1031.4
20201123205345 36 0 2.0 3.0 0.00 0.00 0.00 94 1031.2
20201123204020 36 0 2.0 3.0 0.00 0.00 0.00 94 1031.2
20201123202546 35 0 0.0 3.0 0.00 0.00 0.00 93 1031.3
20201123201136 35 0 0.0 3.0 0.00 0.00 0.00 93 1031.3
20201123195854 36 0 2.0 4.0 0.00 0.00 0.00 93 1031.4
20201123194534 36 0 2.0 4.0 0.00 0.00 0.00 93 1031.4
20201123193054 38 45 2.0 4.0 0.00 0.00 0.00 90 1031.1
20201123191728 38 45 2.0 4.0 0.00 0.00 0.00 90 1031.1
20201123190441 37 90 1.0 4.0 0.00 0.00 0.00 90 1031.1
20201123185037 37 90 1.0 4.0 0.00 0.00 0.00 90 1031.1
20201123183701 37 90 1.0 4.0 0.00 0.00 0.00 90 1031.1
20201123182457 38 45 2.0 4.0 0.00 0.00 0.00 87 1030.9
20201123181026 38 45 2.0 4.0 0.00 0.00 0.00 87 1030.9
20201123175630 40 45 2.0 5.0 0.00 0.00 0.00 82 1030.6
20201123174251 40 45 2.0 5.0 0.00 0.00 0.00 82 1030.6
20201123173026 41 45 2.0 5.0 0.00 0.00 0.00 79 1030.4
20201123171659 41 45 2.0 5.0 0.00 0.00 0.00 79 1030.4
20201123170256 43 135 3.0 6.0 0.00 0.00 0.00 75 1030.2
20201123165012 43 135 3.0 6.0 0.00 0.00 0.00 75 1030.2
20201123163654 43 135 3.0 6.0 0.00 0.00 0.00 75 1030.2
20201123162250 45 135 4.0 6.0 0.00 0.00 0.00 68 1029.9
20201123160937 45 135 4.0 6.0 0.00 0.00 0.00 68 1029.9
20201123155600 47 135 2.0 5.0 0.00 0.00 0.00 68 1029.8
20201123154129 47 135 2.0 5.0 0.00 0.00 0.00 68 1029.8
20201123152718 47 180 2.0 5.0 0.00 0.00 0.00 66 1029.8
20201123151410 47 180 2.0 5.0 0.00 0.00 0.00 66 1029.8
20201123145955 46 135 2.0 6.0 0.00 0.00 0.00 69 1029.9
20201123144610 46 135 2.0 6.0 0.00 0.00 0.00 69 1029.9
20201123143248 32 0 0.0 0.0 0.00 0.00 0.00 1
20201123141837 32 0 0.0 0.0 0.00 0.00 0.00 1
20201123140549 47 225 4.0 6.0 0.00 0.00 0.00 61 1030.0
20201123135233 47 225 4.0 6.0 0.00 0.00 0.00 61 1030.0
20201123133802 47 225 4.0 6.0 0.00 0.00 0.00 61 1030.0
20201123132314 47 270 2.0 6.0 0.00 0.00 0.00 61 1030.2
20201123130955 47 270 2.0 6.0 0.00 0.00 0.00 61 1030.2
20201123125639 45 315 3.0 7.0 0.00 0.00 0.00 64 1030.6
20201123124220 45 315 3.0 7.0 0.00 0.00 0.00 64 1030.6
20201123122838 44 180 2.0 5.0 0.00 0.00 0.00 69 1030.7
20201123121537 44 180 2.0 5.0 0.00 0.00 0.00 69 1030.7
20201123114810 44 225 2.0 8.0 0.00 0.00 0.00 73 1031.0
20201123113231 42 270 2.0 8.0 0.00 0.00 0.00 73 1031.5
20201123111935 42 270 2.0 8.0 0.00 0.00 0.00 73 1031.5
20201123110633 42 270 2.0 8.0 0.00 0.00 0.00 73 1031.5
20201123105214 41 270 4.0 6.0 0.00 0.00 0.00 83 1031.6
20201123103858 41 270 4.0 6.0 0.00 0.00 0.00 83 1031.6
20201123102601 39 270 4.0 6.0 0.00 0.00 0.00 89 1031.7
20201123101148 39 270 4.0 6.0 0.00 0.00 0.00 89 1031.7
20201123095655 39 315 5.0 7.0 0.00 0.00 0.00 89 1031.7
20201123094314 39 315 5.0 7.0 0.00 0.00 0.00 89 1031.7
20201123092939 38 270 2.0 3.0 0.00 0.00 0.00 88 1031.8
20201123091640 38 270 2.0 3.0 0.00 0.00 0.00 88 1031.8
20201123090437 38 0 2.0 4.0 0.00 0.00 0.00 92 1031.6
20201123085207 38 0 2.0 4.0 0.00 0.00 0.00 92 1031.6
20201123083902 38 0 2.0 4.0 0.00 0.00 0.00 92 1031.6
20201123082511 36 0 2.0 4.0 0.00 0.00 0.00 95 1031.4
20201123081212 36 0 2.0 4.0 0.00 0.00 0.00 95 1031.4
20201123075908 35 45 2.0 4.0 0.00 0.00 0.00 96 1031.2
20201123074602 35 45 2.0 4.0 0.00 0.00 0.00 96 1031.2
20201123073155 34 0 2.0 4.0 0.00 0.00 0.00 97 1031.3
20201123071837 34 0 2.0 4.0 0.00 0.00 0.00 97 1031.3
20201123070558 33 180 2.0 4.0 0.00 0.00 0.00 96 1031.1
20201123065149 33 180 2.0 4.0 0.00 0.00 0.00 96 1031.1
20201123063841 33 180 2.0 4.0 0.00 0.00 0.00 96 1031.1
20201123062510 33 0 2.0 4.0 0.00 0.00 0.00 96 1031.0
20201123061121 33 0 2.0 4.0 0.00 0.00 0.00 96 1031.0
20201123055758 32 0 2.0 5.0 0.00 0.00 0.00 97 1031.0
20201123054425 32 0 2.0 5.0 0.00 0.00 0.00 97 1031.0
20201123053059 31 45 3.0 5.0 0.00 0.00 0.00 96 1030.9
20201123051623 31 45 3.0 5.0 0.00 0.00 0.00 96 1030.9
20201123050252 32 45 2.0 3.0 0.00 0.00 0.00 96 1030.6
20201123045009 32 45 2.0 3.0 0.00 0.00 0.00 96 1030.6
20201123043653 32 45 2.0 3.0 0.00 0.00 0.00 96 1030.6
20201123042335 32 90 2.0 3.0 0.00 0.00 0.00 96 1030.5